Time,TemperatureF,DewpointF,PressureIn,WindDirection,WindDirectionDegrees,WindSpeedMPH,WindSpeedGustMPH,Humidity,HourlyPrecipIn,Conditions,Clouds,dailyrainin,SoftwareType,DateUTC
2013-10-28 00:01:00,27.6,24.8,30.10,SE,130,0.0,0.0,89,0.00,,,0.00,WeatherCatV1.20B785,2013-10-28 04:01:00,
2013-10-28 00:02:00,27.6,24.8,30.10,SE,130,0.0,0.0,89,0.00,,,0.00,WeatherCatV1.20B785,2013-10-28 04:02:00,
2013-10-28 00:05:00,27.6,24.8,30.10,SE,129,0.0,0.0,89,0.00,,,0.00,WeatherCatV1.20B785,2013-10-28 04:05:00,
2013-10-28 00:06:00,27.6,24.8,30.10,SE,130,0.0,0.0,89,0.00,,,0.00,WeatherCatV1.20B785,2013-10-28 04:06:00,
2013-10-28 00:08:00,27.7,24.9,30.10,SE,129,0.0,0.0,89,0.00,,,0.00,WeatherCatV1.20B785,2013-10-28 04:08:00,
2013-10-28 00:13:00,27.6,24.8,30.10,SE,129,0.0,0.0,89,0.00,,,0.00,WeatherCatV1.20B785,2013-10-28 04:13:00,
2013-10-28 00:18:00,27.7,24.9,30.10,SE,129,0.0,0.0,89,0.00,,,0.00,WeatherCatV1.20B785,2013-10-28 04:18:00,
2013-10-28 00:21:00,27.5,24.7,30.10,SE,130,0.0,0.0,89,0.00,,,0.00,WeatherCatV1.20B785,2013-10-28 04:21:00,
2013-10-28 00:26:00,27.4,24.6,30.11,SE,130,0.0,0.0,89,0.00,,,0.00,WeatherCatV1.20B785,2013-10-28 04:26:00,
2013-10-28 00:31:00,27.1,24.3,30.11,SE,129,0.0,0.0,89,0.00,,,0.00,WeatherCatV1.20B785,2013-10-28 04:31:00,
2013-10-28 00:36:00,26.9,24.1,30.11,SE,129,0.0,0.0,89,0.00,,,0.00,WeatherCatV1.20B785,2013-10-28 04:36:00,
2013-10-28 00:41:00,26.6,23.8,30.11,SE,129,0.0,0.0,89,0.00,,,0.00,WeatherCatV1.20B785,2013-10-28 04:41:00,
2013-10-28 00:46:00,26.5,23.7,30.11,SE,129,0.0,0.0,89,0.00,,,0.00,WeatherCatV1.20B785,2013-10-28 04:46:00,
2013-10-28 00:51:00,26.4,23.6,30.11,SE,130,0.0,0.0,89,0.00,,,0.00,WeatherCatV1.20B785,2013-10-28 04:51:00,
2013-10-28 00:56:00,26.2,23.4,30.11,SE,129,0.0,0.0,89,0.00,,,0.00,WeatherCatV1.20B785,2013-10-28 04:56:00,
2013-10-28 01:01:00,26.2,23.4,30.11,SE,129,0.0,0.0,89,0.00,,,0.00,WeatherCatV1.20B785,2013-10-28 05:01:00,
2013-10-28 01:06:00,26.1,23.3,30.11,SE,129,0.0,0.0,89,0.00,,,0.00,WeatherCatV1.20B785,2013-10-28 05:06:00,
2013-10-28 01:11:00,26.3,23.5,30.11,SE,129,0.0,0.0,89,0.00,,,0.00,WeatherCatV1.20B785,2013-10-28 05:11:00,
2013-10-28 01:16:00,26.6,23.8,30.11,SE,129,0.0,0.0,89,0.00,,,0.00,WeatherCatV1.20B785,2013-10-28 05:16:00,
2013-10-28 01:21:00,26.7,23.9,30.11,SE,129,0.0,0.0,89,0.00,,,0.00,WeatherCatV1.20B785,2013-10-28 05:21:00,
2013-10-28 01:26:00,26.5,23.7,30.12,SE,129,0.0,0.0,89,0.00,,,0.00,WeatherCatV1.20B785,2013-10-28 05:26:00,
2013-10-28 01:31:00,26.4,23.6,30.12,SE,129,0.0,0.0,89,0.00,,,0.00,WeatherCatV1.20B785,2013-10-28 05:31:00,
2013-10-28 01:36:00,26.2,23.4,30.12,SE,129,0.0,0.0,89,0.00,,,0.00,WeatherCatV1.20B785,2013-10-28 05:36:00,
2013-10-28 01:41:00,26.0,23.2,30.12,SE,129,0.0,0.0,89,0.00,,,0.00,WeatherCatV1.20B785,2013-10-28 05:41:00,
2013-10-28 01:46:00,26.3,23.5,30.12,SE,130,0.0,0.0,89,0.00,,,0.00,WeatherCatV1.20B785,2013-10-28 05:46:00,
2013-10-28 01:51:00,26.5,23.7,30.12,SE,129,0.0,0.0,89,0.00,,,0.00,WeatherCatV1.20B785,2013-10-28 05:51:00,
2013-10-28 01:56:00,26.6,23.8,30.12,SE,129,0.0,0.0,89,0.00,,,0.00,WeatherCatV1.20B785,2013-10-28 05:56:00,
2013-10-28 02:01:00,26.8,24.0,30.12,SE,130,0.0,0.0,89,0.00,,,0.00,WeatherCatV1.20B785,2013-10-28 06:01:00,
2013-10-28 02:06:00,27.0,24.2,30.12,SE,129,0.0,0.0,89,0.00,,,0.00,WeatherCatV1.20B785,2013-10-28 06:06:00,
2013-10-28 02:11:00,26.8,24.0,30.12,SE,129,0.0,0.0,89,0.00,,,0.00,WeatherCatV1.20B785,2013-10-28 06:11:00,
2013-10-28 02:16:00,26.6,23.8,30.12,SE,129,0.0,0.0,89,0.00,,,0.00,WeatherCatV1.20B785,2013-10-28 06:16:00,
2013-10-28 02:21:00,26.3,23.5,30.12,SE,129,0.0,0.0,89,0.00,,,0.00,WeatherCatV1.20B785,2013-10-28 06:21:00,
2013-10-28 02:26:00,26.3,23.5,30.12,SE,130,0.0,0.0,89,0.00,,,0.00,WeatherCatV1.20B785,2013-10-28 06:26:00,
2013-10-28 02:31:00,26.2,23.4,30.12,SE,129,0.0,0.0,89,0.00,,,0.00,WeatherCatV1.20B785,2013-10-28 06:31:00,
2013-10-28 02:36:00,25.9,23.1,30.13,SE,130,0.0,0.0,89,0.00,,,0.00,WeatherCatV1.20B785,2013-10-28 06:36:00,
2013-10-28 02:41:00,25.8,23.0,30.13,SE,129,0.0,0.0,89,0.00,,,0.00,WeatherCatV1.20B785,2013-10-28 06:41:00,
2013-10-28 02:46:00,26.0,23.2,30.13,SE,129,0.0,0.0,89,0.00,,,0.00,WeatherCatV1.20B785,2013-10-28 06:46:00,
2013-10-28 02:51:00,26.1,23.3,30.13,SE,129,0.0,0.0,89,0.00,,,0.00,WeatherCatV1.20B785,2013-10-28 06:51:00,
2013-10-28 02:56:00,26.1,23.3,30.13,SE,129,0.0,0.0,89,0.00,,,0.00,WeatherCatV1.20B785,2013-10-28 06:56:00,
2013-10-28 03:01:00,26.0,23.2,30.13,SE,129,0.0,0.0,89,0.00,,,0.00,WeatherCatV1.20B785,2013-10-28 07:01:00,
2013-10-28 03:06:00,26.0,23.2,30.13,SE,129,0.0,0.0,89,0.00,,,0.00,WeatherCatV1.20B785,2013-10-28 07:06:00,
2013-10-28 03:11:00,26.1,23.3,30.13,SE,130,0.0,0.0,89,0.00,,,0.00,WeatherCatV1.20B785,2013-10-28 07:11:00,
2013-10-28 03:16:00,26.1,23.3,30.13,SE,129,0.0,0.0,89,0.00,,,0.00,WeatherCatV1.20B785,2013-10-28 07:16:00,
2013-10-28 03:21:00,26.1,23.3,30.13,SE,130,0.0,0.0,89,0.00,,,0.00,WeatherCatV1.20B785,2013-10-28 07:21:00,
2013-10-28 03:26:00,26.0,23.2,30.13,SE,129,0.0,0.0,89,0.00,,,0.00,WeatherCatV1.20B785,2013-10-28 07:26:00,
2013-10-28 03:31:00,25.8,23.0,30.13,SE,129,0.0,0.0,89,0.00,,,0.00,WeatherCatV1.20B785,2013-10-28 07:31:00,
2013-10-28 03:36:00,25.5,22.7,30.13,SE,129,0.0,0.0,89,0.00,,,0.00,WeatherCatV1.20B785,2013-10-28 07:36:00,
2013-10-28 03:41:00,25.4,22.6,30.13,SE,129,0.0,0.0,89,0.00,,,0.00,WeatherCatV1.20B785,2013-10-28 07:41:00,
2013-10-28 03:46:00,25.5,22.7,30.14,SE,129,0.0,0.0,89,0.00,,,0.00,WeatherCatV1.20B785,2013-10-28 07:46:00,
2013-10-28 03:51:00,25.4,22.6,30.14,SE,131,0.0,0.0,89,0.00,,,0.00,WeatherCatV1.20B785,2013-10-28 07:51:00,
2013-10-28 03:56:00,25.4,22.6,30.14,SE,131,0.0,0.0,89,0.00,,,0.00,WeatherCatV1.20B785,2013-10-28 07:56:00,
2013-10-28 04:01:00,25.4,22.6,30.13,SE,129,0.0,1.0,89,0.00,,,0.00,WeatherCatV1.20B785,2013-10-28 08:01:00,
2013-10-28 04:06:00,25.7,22.9,30.13,SE,129,0.0,1.0,89,0.00,,,0.00,WeatherCatV1.20B785,2013-10-28 08:06:00,
2013-10-28 04:11:00,25.7,22.9,30.13,SE,136,0.0,0.0,89,0.00,,,0.00,WeatherCatV1.20B785,2013-10-28 08:11:00,
2013-10-28 04:16:00,25.6,22.8,30.13,SE,134,0.0,0.0,89,0.00,,,0.00,WeatherCatV1.20B785,2013-10-28 08:16:00,
2013-10-28 04:21:00,25.5,22.7,30.14,SE,134,0.0,0.0,89,0.00,,,0.00,WeatherCatV1.20B785,2013-10-28 08:21:00,
2013-10-28 04:26:00,25.5,22.7,30.14,NE,36,0.0,0.0,89,0.00,,,0.00,WeatherCatV1.20B785,2013-10-28 08:26:00,
2013-10-28 04:31:00,25.5,22.7,30.14,SE,132,0.0,1.0,89,0.00,,,0.00,WeatherCatV1.20B785,2013-10-28 08:31:00,
2013-10-28 04:36:00,25.7,22.9,30.14,WNW,301,0.0,1.0,89,0.00,,,0.00,WeatherCatV1.20B785,2013-10-28 08:36:00,
2013-10-28 04:41:00,25.6,22.8,30.14,WNW,300,0.0,0.0,89,0.00,,,0.00,WeatherCatV1.20B785,2013-10-28 08:41:00,
2013-10-28 04:46:00,25.5,22.7,30.14,WNW,283,1.0,1.0,89,0.00,,,0.00,WeatherCatV1.20B785,2013-10-28 08:46:00,
2013-10-28 04:51:00,25.5,22.7,30.15,NE,53,0.0,0.0,89,0.00,,,0.00,WeatherCatV1.20B785,2013-10-28 08:51:00,
2013-10-28 04:56:00,25.5,22.7,30.15,NE,53,0.0,0.0,89,0.00,,,0.00,WeatherCatV1.20B785,2013-10-28 08:56:00,
2013-10-28 05:01:00,25.5,22.7,30.15,SSE,166,0.0,0.0,89,0.00,,,0.00,WeatherCatV1.20B785,2013-10-28 09:01:00,
2013-10-28 05:06:00,25.4,22.6,30.15,SSE,166,0.0,0.0,89,0.00,,,0.00,WeatherCatV1.20B785,2013-10-28 09:06:00,
2013-10-28 05:11:00,25.4,22.6,30.15,SSE,165,0.0,0.0,89,0.00,,,0.00,WeatherCatV1.20B785,2013-10-28 09:11:00,
2013-10-28 05:16:00,25.3,22.5,30.15,SE,141,0.0,1.0,89,0.00,,,0.00,WeatherCatV1.20B785,2013-10-28 09:16:00,
2013-10-28 05:21:00,25.4,22.6,30.15,SSW,205,0.0,1.0,89,0.00,,,0.00,WeatherCatV1.20B785,2013-10-28 09:21:00,
2013-10-28 05:26:00,25.5,22.7,30.16,West,277,0.0,1.0,89,0.00,,,0.00,WeatherCatV1.20B785,2013-10-28 09:26:00,
2013-10-28 05:31:00,25.6,22.8,30.15,West,281,0.0,0.0,89,0.00,,,0.00,WeatherCatV1.20B785,2013-10-28 09:31:00,
2013-10-28 05:36:00,25.8,23.0,30.15,ENE,75,0.0,1.0,89,0.00,,,0.00,WeatherCatV1.20B785,2013-10-28 09:36:00,
2013-10-28 05:41:00,25.9,23.1,30.16,WNW,291,0.0,0.0,89,0.00,,,0.00,WeatherCatV1.20B785,2013-10-28 09:41:00,
2013-10-28 05:46:00,25.8,23.0,30.16,WNW,291,0.0,0.0,89,0.00,,,0.00,WeatherCatV1.20B785,2013-10-28 09:46:00,
2013-10-28 05:51:00,25.6,23.1,30.17,North,355,0.0,3.0,90,0.00,,,0.00,WeatherCatV1.20B785,2013-10-28 09:51:00,
2013-10-28 05:56:00,25.6,22.8,30.17,SSE,153,0.0,0.0,89,0.00,,,0.00,WeatherCatV1.20B785,2013-10-28 09:56:00,
2013-10-28 06:01:00,25.5,22.7,30.17,WSW,249,0.0,1.0,89,0.00,,,0.00,WeatherCatV1.20B785,2013-10-28 10:01:00,
2013-10-28 06:06:00,25.4,22.9,30.17,SW,234,0.0,0.0,90,0.00,,,0.00,WeatherCatV1.20B785,2013-10-28 10:06:00,
2013-10-28 06:11:00,25.2,22.7,30.17,SSE,155,0.0,0.0,90,0.00,,,0.00,WeatherCatV1.20B785,2013-10-28 10:11:00,
2013-10-28 06:16:00,25.2,22.4,30.17,SSE,155,0.0,0.0,89,0.00,,,0.00,WeatherCatV1.20B785,2013-10-28 10:16:00,
2013-10-28 06:21:00,25.4,22.6,30.17,SSE,157,0.0,0.0,89,0.00,,,0.00,WeatherCatV1.20B785,2013-10-28 10:21:00,
2013-10-28 06:26:00,25.7,22.9,30.17,SSE,155,0.0,0.0,89,0.00,,,0.00,WeatherCatV1.20B785,2013-10-28 10:26:00,
2013-10-28 06:31:00,25.7,22.9,30.17,SSE,155,0.0,0.0,89,0.00,,,0.00,WeatherCatV1.20B785,2013-10-28 10:31:00,
2013-10-28 06:36:00,25.5,22.7,30.18,SSE,155,0.0,0.0,89,0.00,,,0.00,WeatherCatV1.20B785,2013-10-28 10:36:00,
2013-10-28 06:41:00,25.4,22.9,30.18,SSE,155,0.0,0.0,90,0.00,,,0.00,WeatherCatV1.20B785,2013-10-28 10:41:00,
2013-10-28 06:46:00,25.3,22.5,30.18,SSE,157,0.0,0.0,89,0.00,,,0.00,WeatherCatV1.20B785,2013-10-28 10:46:00,
2013-10-28 06:51:00,25.2,22.4,30.18,SSE,156,0.0,0.0,89,0.00,,,0.00,WeatherCatV1.20B785,2013-10-28 10:51:00,
2013-10-28 06:56:00,25.1,22.3,30.18,SSE,156,0.0,0.0,89,0.00,,,0.00,WeatherCatV1.20B785,2013-10-28 10:56:00,
2013-10-28 07:01:00,25.1,22.3,30.18,SSE,157,0.0,0.0,89,0.00,,,0.00,WeatherCatV1.20B785,2013-10-28 11:01:00,
2013-10-28 07:06:00,25.0,22.2,30.18,SSE,156,0.0,0.0,89,0.00,,,0.00,WeatherCatV1.20B785,2013-10-28 11:06:00,
2013-10-28 07:11:00,25.0,22.2,30.18,SSE,157,0.0,0.0,89,0.00,,,0.00,WeatherCatV1.20B785,2013-10-28 11:11:00,
2013-10-28 07:16:00,25.0,22.2,30.19,SSE,157,0.0,0.0,89,0.00,,,0.00,WeatherCatV1.20B785,2013-10-28 11:16:00,
2013-10-28 07:21:00,25.0,22.2,30.19,SSE,157,0.0,0.0,89,0.00,,,0.00,WeatherCatV1.20B785,2013-10-28 11:21:00,
2013-10-28 07:26:00,24.7,21.9,30.19,SSE,157,0.0,0.0,89,0.00,,,0.00,WeatherCatV1.20B785,2013-10-28 11:26:00,
2013-10-28 07:31:00,24.6,21.8,30.19,SSE,157,0.0,0.0,89,0.00,,,0.00,WeatherCatV1.20B785,2013-10-28 11:31:00,
2013-10-28 07:36:00,24.6,21.8,30.19,SSE,156,0.0,0.0,89,0.00,,,0.00,WeatherCatV1.20B785,2013-10-28 11:36:00,
2013-10-28 07:41:00,24.3,21.5,30.19,SSE,157,0.0,0.0,89,0.00,,,0.00,WeatherCatV1.20B785,2013-10-28 11:41:00,
2013-10-28 07:47:00,24.1,21.6,30.19,SSE,157,0.0,0.0,90,0.00,,,0.00,WeatherCatV1.20B785,2013-10-28 11:47:00,
2013-10-28 07:52:00,24.7,21.9,30.19,SW,215,0.0,0.0,89,0.00,,,0.00,WeatherCatV1.20B785,2013-10-28 11:52:00,
2013-10-28 07:57:00,25.4,22.6,30.20,SW,215,0.0,0.0,89,0.00,,,0.00,WeatherCatV1.20B785,2013-10-28 11:57:00,
2013-10-28 08:02:00,25.5,22.7,30.20,SW,215,0.0,0.0,89,0.00,,,0.00,WeatherCatV1.20B785,2013-10-28 12:02:00,
2013-10-28 08:07:00,25.5,22.7,30.21,SW,215,0.0,0.0,89,0.00,,,0.00,WeatherCatV1.20B785,2013-10-28 12:07:00,
2013-10-28 08:12:00,25.3,22.5,30.21,SW,215,0.0,0.0,89,0.00,,,0.00,WeatherCatV1.20B785,2013-10-28 12:12:00,
2013-10-28 08:17:00,25.3,22.5,30.21,SW,216,0.0,0.0,89,0.00,,,0.00,WeatherCatV1.20B785,2013-10-28 12:17:00,
2013-10-28 08:22:00,25.4,22.6,30.22,SW,215,0.0,0.0,89,0.00,,,0.00,WeatherCatV1.20B785,2013-10-28 12:22:00,
2013-10-28 08:27:00,26.0,23.2,30.22,SW,215,0.0,0.0,89,0.00,,,0.00,WeatherCatV1.20B785,2013-10-28 12:27:00,
2013-10-28 08:32:00,26.5,23.7,30.22,SW,215,0.0,0.0,89,0.00,,,0.00,WeatherCatV1.20B785,2013-10-28 12:32:00,
2013-10-28 08:37:00,26.9,24.1,30.23,SW,215,0.0,0.0,89,0.00,,,0.00,WeatherCatV1.20B785,2013-10-28 12:37:00,
2013-10-28 08:42:00,27.3,24.5,30.23,SW,215,0.0,0.0,89,0.00,,,0.00,WeatherCatV1.20B785,2013-10-28 12:42:00,
2013-10-28 08:47:00,27.5,24.7,30.23,SW,216,0.0,0.0,89,0.00,,,0.00,WeatherCatV1.20B785,2013-10-28 12:47:00,
2013-10-28 08:52:00,27.9,25.1,30.23,SW,215,0.0,0.0,89,0.00,,,0.00,WeatherCatV1.20B785,2013-10-28 12:52:00,
2013-10-28 08:57:00,28.3,25.5,30.24,SW,215,0.0,0.0,89,0.00,,,0.00,WeatherCatV1.20B785,2013-10-28 12:57:00,
2013-10-28 09:02:00,28.7,25.9,30.24,SW,215,0.0,0.0,89,0.00,,,0.00,WeatherCatV1.20B785,2013-10-28 13:02:00,
2013-10-28 09:07:00,29.1,26.3,30.24,SW,216,0.0,0.0,89,0.00,,,0.00,WeatherCatV1.20B785,2013-10-28 13:07:00,
2013-10-28 09:12:00,29.6,26.8,30.25,SW,215,0.0,0.0,89,0.00,,,0.00,WeatherCatV1.20B785,2013-10-28 13:12:00,
2013-10-28 09:17:00,30.0,27.2,30.25,SW,215,0.0,0.0,89,0.00,,,0.00,WeatherCatV1.20B785,2013-10-28 13:17:00,
2013-10-28 09:22:00,30.4,27.5,30.25,SW,216,0.0,0.0,89,0.00,,,0.00,WeatherCatV1.20B785,2013-10-28 13:22:00,
2013-10-28 09:27:00,30.9,28.0,30.25,South,174,1.0,1.0,89,0.00,,,0.00,WeatherCatV1.20B785,2013-10-28 13:27:00,
2013-10-28 09:32:00,31.5,28.6,30.25,SSE,160,0.0,0.0,89,0.00,,,0.00,WeatherCatV1.20B785,2013-10-28 13:32:00,
2013-10-28 09:37:00,32.1,29.2,30.25,SSE,162,0.0,0.0,89,0.00,,,0.00,WeatherCatV1.20B785,2013-10-28 13:37:00,
2013-10-28 09:42:00,32.6,29.7,30.25,ESE,117,0.0,0.0,89,0.00,,,0.00,WeatherCatV1.20B785,2013-10-28 13:42:00,
2013-10-28 09:47:00,33.3,30.4,30.26,SSE,158,0.0,1.0,89,0.00,,,0.00,WeatherCatV1.20B785,2013-10-28 13:47:00,
2013-10-28 09:52:00,33.9,31.0,30.25,SSE,159,0.0,1.0,89,0.00,,,0.00,WeatherCatV1.20B785,2013-10-28 13:52:00,
2013-10-28 09:57:00,34.4,31.5,30.25,SSE,161,0.0,0.0,89,0.00,,,0.00,WeatherCatV1.20B785,2013-10-28 13:57:00,
2013-10-28 10:02:00,35.0,32.1,30.25,ESE,112,0.0,1.0,89,0.00,,,0.00,WeatherCatV1.20B785,2013-10-28 14:02:00,
2013-10-28 10:07:00,35.4,32.5,30.25,ESE,122,0.0,0.0,89,0.00,,,0.00,WeatherCatV1.20B785,2013-10-28 14:07:00,
2013-10-28 10:12:00,35.9,33.0,30.25,ESE,121,0.0,0.0,89,0.00,,,0.00,WeatherCatV1.20B785,2013-10-28 14:12:00,
2013-10-28 10:17:00,36.6,33.7,30.25,ESE,121,0.0,0.0,89,0.00,,,0.00,WeatherCatV1.20B785,2013-10-28 14:17:00,
2013-10-28 10:22:00,37.3,34.4,30.25,ESE,121,0.0,0.0,89,0.00,,,0.00,WeatherCatV1.20B785,2013-10-28 14:22:00,
2013-10-28 10:27:00,38.0,35.0,30.26,East,100,0.0,0.0,89,0.00,,,0.00,WeatherCatV1.20B785,2013-10-28 14:27:00,
2013-10-28 10:32:00,38.7,35.7,30.26,NE,53,0.0,1.0,89,0.00,,,0.00,WeatherCatV1.20B785,2013-10-28 14:32:00,
2013-10-28 10:37:00,39.4,36.4,30.26,NNE,26,0.0,1.0,89,0.00,,,0.00,WeatherCatV1.20B785,2013-10-28 14:37:00,
2013-10-28 10:42:00,40.1,37.4,30.26,East,81,0.0,1.0,90,0.00,,,0.00,WeatherCatV1.20B785,2013-10-28 14:42:00,
2013-10-28 10:47:00,40.9,38.2,30.26,ENE,69,2.0,2.0,90,0.00,,,0.00,WeatherCatV1.20B785,2013-10-28 14:47:00,
2013-10-28 10:52:00,41.6,38.9,30.27,NNE,26,1.0,3.0,90,0.00,,,0.00,WeatherCatV1.20B785,2013-10-28 14:52:00,
2013-10-28 10:57:00,42.3,39.0,30.27,East,80,0.0,2.0,88,0.00,,,0.00,WeatherCatV1.20B785,2013-10-28 14:57:00,
2013-10-28 11:02:00,42.9,39.9,30.28,NNW,328,1.0,2.0,89,0.00,,,0.00,WeatherCatV1.20B785,2013-10-28 15:02:00,
2013-10-28 11:07:00,43.1,39.8,30.28,NW,326,0.0,0.0,88,0.00,,,0.00,WeatherCatV1.20B785,2013-10-28 15:07:00,
2013-10-28 11:12:00,43.4,40.1,30.28,NNW,328,1.0,1.0,88,0.00,,,0.00,WeatherCatV1.20B785,2013-10-28 15:12:00,
2013-10-28 11:17:00,43.6,40.3,30.28,NNW,327,0.0,0.0,88,0.00,,,0.00,WeatherCatV1.20B785,2013-10-28 15:17:00,
2013-10-28 11:22:00,44.1,40.2,30.28,NW,312,0.0,1.0,86,0.00,,,0.00,WeatherCatV1.20B785,2013-10-28 15:22:00,
2013-10-28 11:27:00,44.5,40.9,30.28,West,278,1.0,2.0,87,0.00,,,0.00,WeatherCatV1.20B785,2013-10-28 15:27:00,
2013-10-28 11:32:00,45.0,41.1,30.28,NW,320,1.0,2.0,86,0.00,,,0.00,WeatherCatV1.20B785,2013-10-28 15:32:00,
2013-10-28 11:37:00,45.4,40.8,30.28,North,1,0.0,0.0,84,0.00,,,0.00,WeatherCatV1.20B785,2013-10-28 15:37:00,
2013-10-28 11:42:00,45.8,40.9,30.28,NW,322,1.0,3.0,83,0.00,,,0.00,WeatherCatV1.20B785,2013-10-28 15:42:00,
2013-10-28 11:47:00,46.2,41.9,30.28,NNW,337,0.0,2.0,85,0.00,,,0.00,WeatherCatV1.20B785,2013-10-28 15:47:00,
2013-10-28 11:52:00,46.8,41.9,30.28,WNW,283,1.0,2.0,83,0.00,,,0.00,WeatherCatV1.20B785,2013-10-28 15:52:00,
2013-10-28 11:57:00,47.2,42.0,30.28,SE,134,0.0,1.0,82,0.00,,,0.00,WeatherCatV1.20B785,2013-10-28 15:57:00,
2013-10-28 12:02:00,47.5,42.0,30.28,SE,124,0.0,2.0,81,0.00,,,0.00,WeatherCatV1.20B785,2013-10-28 16:02:00,
2013-10-28 12:07:00,47.9,42.3,30.28,ENE,74,4.0,4.0,81,0.00,,,0.00,WeatherCatV1.20B785,2013-10-28 16:07:00,
2013-10-28 12:12:00,48.0,42.5,30.28,NNE,22,0.0,1.0,81,0.00,,,0.00,WeatherCatV1.20B785,2013-10-28 16:12:00,
2013-10-28 12:17:00,48.2,42.0,30.28,WSW,248,1.0,1.0,79,0.00,,,0.00,WeatherCatV1.20B785,2013-10-28 16:17:00,
2013-10-28 12:22:00,48.4,41.9,30.28,West,266,2.0,2.0,78,0.00,,,0.00,WeatherCatV1.20B785,2013-10-28 16:22:00,
2013-10-28 12:27:00,48.8,42.6,30.28,NNE,32,0.0,1.0,79,0.00,,,0.00,WeatherCatV1.20B785,2013-10-28 16:27:00,
2013-10-28 12:32:00,49.0,41.4,30.28,ENE,63,0.0,3.0,75,0.00,,,0.00,WeatherCatV1.20B785,2013-10-28 16:32:00,
2013-10-28 12:37:00,49.4,42.5,30.28,NNW,342,0.0,1.0,77,0.00,,,0.00,WeatherCatV1.20B785,2013-10-28 16:37:00,
2013-10-28 12:42:00,50.2,42.9,30.28,SSE,150,1.0,2.0,76,0.00,,,0.00,WeatherCatV1.20B785,2013-10-28 16:42:00,
2013-10-28 12:47:00,50.6,43.0,30.28,NW,318,1.0,4.0,75,0.00,,,0.00,WeatherCatV1.20B785,2013-10-28 16:47:00,
2013-10-28 12:52:00,50.4,42.1,30.27,ENE,68,3.0,5.0,73,0.00,,,0.00,WeatherCatV1.20B785,2013-10-28 16:52:00,
2013-10-28 12:57:00,50.5,42.5,30.28,East,84,1.0,1.0,74,0.00,,,0.00,WeatherCatV1.20B785,2013-10-28 16:57:00,
2013-10-28 13:02:00,50.8,43.2,30.27,North,352,1.0,3.0,75,0.00,,,0.00,WeatherCatV1.20B785,2013-10-28 17:02:00,
2013-10-28 13:07:00,50.8,41.4,30.27,ENE,73,1.0,2.0,70,0.00,,,0.00,WeatherCatV1.20B785,2013-10-28 17:07:00,
2013-10-28 13:12:00,50.7,42.7,30.27,ENE,74,0.0,1.0,74,0.00,,,0.00,WeatherCatV1.20B785,2013-10-28 17:12:00,
2013-10-28 13:17:00,51.3,42.9,30.27,West,262,0.0,2.0,73,0.00,,,0.00,WeatherCatV1.20B785,2013-10-28 17:17:00,
2013-10-28 13:22:00,51.8,42.3,30.27,NW,318,0.0,3.0,70,0.00,,,0.00,WeatherCatV1.20B785,2013-10-28 17:22:00,
2013-10-28 13:27:00,51.7,43.3,30.27,NNW,345,1.0,3.0,73,0.00,,,0.00,WeatherCatV1.20B785,2013-10-28 17:27:00,
2013-10-28 13:32:00,51.9,42.4,30.27,ENE,67,3.0,4.0,70,0.00,,,0.00,WeatherCatV1.20B785,2013-10-28 17:32:00,
2013-10-28 13:37:00,51.7,41.5,30.27,ENE,60,1.0,2.0,68,0.00,,,0.00,WeatherCatV1.20B785,2013-10-28 17:37:00,
2013-10-28 13:42:00,51.7,41.5,30.27,ENE,58,0.0,2.0,68,0.00,,,0.00,WeatherCatV1.20B785,2013-10-28 17:42:00,
2013-10-28 13:47:00,51.4,42.0,30.27,NNW,336,2.0,4.0,70,0.00,,,0.00,WeatherCatV1.20B785,2013-10-28 17:47:00,
2013-10-28 13:52:00,51.1,42.4,30.27,NNW,332,3.0,4.0,72,0.00,,,0.00,WeatherCatV1.20B785,2013-10-28 17:52:00,
2013-10-28 13:57:00,50.7,41.6,30.26,NNW,327,2.0,3.0,71,0.00,,,0.00,WeatherCatV1.20B785,2013-10-28 17:57:00,
2013-10-28 14:02:00,50.7,42.4,30.26,WNW,302,2.0,2.0,73,0.00,,,0.00,WeatherCatV1.20B785,2013-10-28 18:02:00,
2013-10-28 14:07:00,50.6,41.9,30.27,North,8,1.0,3.0,72,0.00,,,0.00,WeatherCatV1.20B785,2013-10-28 18:07:00,
2013-10-28 14:12:00,50.8,42.1,30.27,NW,309,0.0,0.0,72,0.00,,,0.00,WeatherCatV1.20B785,2013-10-28 18:12:00,
2013-10-28 14:17:00,51.0,41.6,30.26,NW,322,0.0,3.0,70,0.00,,,0.00,WeatherCatV1.20B785,2013-10-28 18:17:00,
2013-10-28 14:22:00,51.3,41.8,30.26,West,278,0.0,1.0,70,0.00,,,0.00,WeatherCatV1.20B785,2013-10-28 18:22:00,
2013-10-28 14:27:00,51.8,42.7,30.26,NNW,334,0.0,1.0,71,0.00,,,0.00,WeatherCatV1.20B785,2013-10-28 18:27:00,
2013-10-28 14:32:00,52.1,41.9,30.26,NW,311,2.0,3.0,68,0.00,,,0.00,WeatherCatV1.20B785,2013-10-28 18:32:00,
2013-10-28 14:37:00,52.1,41.5,30.26,NNE,22,2.0,4.0,67,0.00,,,0.00,WeatherCatV1.20B785,2013-10-28 18:37:00,
2013-10-28 14:42:00,52.0,41.0,30.26,NW,321,2.0,4.0,66,0.00,,,0.00,WeatherCatV1.20B785,2013-10-28 18:42:00,
2013-10-28 14:47:00,51.8,42.3,30.26,NNW,328,3.0,8.0,70,0.00,,,0.00,WeatherCatV1.20B785,2013-10-28 18:47:00,
2013-10-28 14:52:00,51.4,42.3,30.27,NNW,335,1.0,4.0,71,0.00,,,0.00,WeatherCatV1.20B785,2013-10-28 18:52:00,
2013-10-28 14:57:00,51.0,41.9,30.27,NNE,12,2.0,5.0,71,0.00,,,0.00,WeatherCatV1.20B785,2013-10-28 18:57:00,
2013-10-28 15:02:00,51.0,43.0,30.27,ENE,68,2.0,2.0,74,0.00,,,0.00,WeatherCatV1.20B785,2013-10-28 19:02:00,
2013-10-28 15:07:00,51.1,42.8,30.27,NNE,20,1.0,2.0,73,0.00,,,0.00,WeatherCatV1.20B785,2013-10-28 19:07:00,
2013-10-28 15:12:00,51.3,42.6,30.27,NNE,22,1.0,5.0,72,0.00,,,0.00,WeatherCatV1.20B785,2013-10-28 19:12:00,
2013-10-28 15:17:00,51.6,42.1,30.27,NNW,348,0.0,6.0,70,0.00,,,0.00,WeatherCatV1.20B785,2013-10-28 19:17:00,
2013-10-28 15:22:00,51.9,42.0,30.27,ENE,68,2.0,5.0,69,0.00,,,0.00,WeatherCatV1.20B785,2013-10-28 19:22:00,
2013-10-28 15:27:00,52.1,41.9,30.27,ENE,72,2.0,2.0,68,0.00,,,0.00,WeatherCatV1.20B785,2013-10-28 19:27:00,
2013-10-28 15:32:00,52.0,41.8,30.27,East,97,3.0,5.0,68,0.00,,,0.00,WeatherCatV1.20B785,2013-10-28 19:32:00,
2013-10-28 15:37:00,51.8,42.3,30.27,NNW,338,2.0,5.0,70,0.00,,,0.00,WeatherCatV1.20B785,2013-10-28 19:37:00,
2013-10-28 15:42:00,51.8,41.6,30.27,NW,316,3.0,4.0,68,0.00,,,0.00,WeatherCatV1.20B785,2013-10-28 19:42:00,
2013-10-28 15:47:00,52.0,42.2,30.27,ENE,57,0.0,0.0,69,0.00,,,0.00,WeatherCatV1.20B785,2013-10-28 19:47:00,
2013-10-28 15:52:00,52.2,42.3,30.27,NW,318,2.0,3.0,69,0.00,,,0.00,WeatherCatV1.20B785,2013-10-28 19:52:00,
2013-10-28 15:57:00,52.0,42.2,30.28,NNW,335,3.0,5.0,69,0.00,,,0.00,WeatherCatV1.20B785,2013-10-28 19:57:00,
2013-10-28 16:02:00,52.2,42.0,30.28,NNW,337,3.0,4.0,68,0.00,,,0.00,WeatherCatV1.20B785,2013-10-28 20:02:00,
2013-10-28 16:07:00,52.1,41.5,30.28,NNW,334,1.0,4.0,67,0.00,,,0.00,WeatherCatV1.20B785,2013-10-28 20:07:00,
2013-10-28 16:12:00,52.2,42.0,30.28,WSW,255,1.0,1.0,68,0.00,,,0.00,WeatherCatV1.20B785,2013-10-28 20:12:00,
2013-10-28 16:17:00,52.3,42.1,30.28,NNE,33,0.0,1.0,68,0.00,,,0.00,WeatherCatV1.20B785,2013-10-28 20:17:00,
2013-10-28 16:22:00,52.1,42.2,30.28,NNW,340,3.0,5.0,69,0.00,,,0.00,WeatherCatV1.20B785,2013-10-28 20:22:00,
2013-10-28 16:27:00,52.0,42.5,30.28,NNW,334,6.0,6.0,70,0.00,,,0.00,WeatherCatV1.20B785,2013-10-28 20:27:00,
2013-10-28 16:32:00,51.6,42.1,30.28,ENE,63,4.0,8.0,70,0.00,,,0.00,WeatherCatV1.20B785,2013-10-28 20:32:00,
2013-10-28 16:37:00,50.6,41.9,30.29,SE,139,2.0,8.0,72,0.00,,,0.00,WeatherCatV1.20B785,2013-10-28 20:37:00,
2013-10-28 16:43:00,49.9,41.6,30.29,WNW,302,3.0,6.0,73,0.00,,,0.00,WeatherCatV1.20B785,2013-10-28 20:43:00,
2013-10-28 16:48:00,49.5,41.2,30.29,NNW,329,2.0,5.0,73,0.00,,,0.00,WeatherCatV1.20B785,2013-10-28 20:48:00,
2013-10-28 16:53:00,49.1,41.2,30.29,NNW,340,5.0,6.0,74,0.00,,,0.00,WeatherCatV1.20B785,2013-10-28 20:53:00,
2013-10-28 16:58:00,48.7,40.8,30.29,North,355,3.0,5.0,74,0.00,,,0.00,WeatherCatV1.20B785,2013-10-28 20:58:00,
2013-10-28 17:03:00,48.6,41.0,30.30,ENE,68,0.0,3.0,75,0.00,,,0.00,WeatherCatV1.20B785,2013-10-28 21:03:00,
2013-10-28 17:08:00,48.5,40.9,30.30,WNW,298,3.0,8.0,75,0.00,,,0.00,WeatherCatV1.20B785,2013-10-28 21:08:00,
2013-10-28 17:13:00,48.1,40.9,30.30,NNE,25,0.0,4.0,76,0.00,,,0.00,WeatherCatV1.20B785,2013-10-28 21:13:00,
2013-10-28 17:18:00,47.9,41.0,30.30,NNW,327,0.0,3.0,77,0.00,,,0.00,WeatherCatV1.20B785,2013-10-28 21:18:00,
2013-10-28 17:23:00,47.6,40.8,30.30,NW,323,4.0,5.0,77,0.00,,,0.00,WeatherCatV1.20B785,2013-10-28 21:23:00,
2013-10-28 17:28:00,47.3,40.8,30.30,NW,326,2.0,4.0,78,0.00,,,0.00,WeatherCatV1.20B785,2013-10-28 21:28:00,
2013-10-28 17:33:00,47.0,40.5,30.30,NNW,332,3.0,4.0,78,0.00,,,0.00,WeatherCatV1.20B785,2013-10-28 21:33:00,
2013-10-28 17:38:00,46.8,40.3,30.30,NNE,18,0.0,5.0,78,0.00,,,0.00,WeatherCatV1.20B785,2013-10-28 21:38:00,
2013-10-28 17:43:00,46.5,40.3,30.30,NNW,341,0.0,3.0,79,0.00,,,0.00,WeatherCatV1.20B785,2013-10-28 21:43:00,
2013-10-28 17:48:00,46.2,40.4,30.30,NNW,330,1.0,1.0,80,0.00,,,0.00,WeatherCatV1.20B785,2013-10-28 21:48:00,
2013-10-28 17:53:00,46.0,40.2,30.30,NW,307,0.0,1.0,80,0.00,,,0.00,WeatherCatV1.20B785,2013-10-28 21:53:00,
2013-10-28 17:58:00,45.7,39.9,30.31,NW,304,1.0,3.0,80,0.00,,,0.00,WeatherCatV1.20B785,2013-10-28 21:58:00,
2013-10-28 18:03:00,45.5,39.7,30.31,ENE,75,0.0,3.0,80,0.00,,,0.00,WeatherCatV1.20B785,2013-10-28 22:03:00,
2013-10-28 18:08:00,45.3,39.5,30.31,NNW,340,2.0,3.0,80,0.00,,,0.00,WeatherCatV1.20B785,2013-10-28 22:08:00,
2013-10-28 18:13:00,45.1,39.6,30.31,NNW,334,0.0,3.0,81,0.00,,,0.00,WeatherCatV1.20B785,2013-10-28 22:13:00,
2013-10-28 18:18:00,45.0,39.5,30.31,NNW,332,0.0,5.0,81,0.00,,,0.00,WeatherCatV1.20B785,2013-10-28 22:18:00,
2013-10-28 18:23:00,44.8,39.3,30.31,NNW,329,0.0,2.0,81,0.00,,,0.00,WeatherCatV1.20B785,2013-10-28 22:23:00,
2013-10-28 18:28:00,44.6,39.5,30.31,North,349,0.0,1.0,82,0.00,,,0.00,WeatherCatV1.20B785,2013-10-28 22:28:00,
2013-10-28 18:33:00,44.3,39.2,30.31,NNW,346,0.0,2.0,82,0.00,,,0.00,WeatherCatV1.20B785,2013-10-28 22:33:00,
2013-10-28 18:38:00,44.1,39.3,30.32,NNE,29,0.0,1.0,83,0.00,,,0.00,WeatherCatV1.20B785,2013-10-28 22:38:00,
2013-10-28 18:43:00,43.9,39.1,30.32,NE,43,2.0,2.0,83,0.00,,,0.00,WeatherCatV1.20B785,2013-10-28 22:43:00,
2013-10-28 18:48:00,43.8,39.0,30.32,NNW,336,1.0,1.0,83,0.00,,,0.00,WeatherCatV1.20B785,2013-10-28 22:48:00,
2013-10-28 18:53:00,43.6,38.8,30.32,NNE,22,0.0,1.0,83,0.00,,,0.00,WeatherCatV1.20B785,2013-10-28 22:53:00,
2013-10-28 18:58:00,43.4,38.6,30.32,North,11,0.0,1.0,83,0.00,,,0.00,WeatherCatV1.20B785,2013-10-28 22:58:00,
2013-10-28 19:03:00,43.2,38.4,30.32,NW,312,0.0,0.0,83,0.00,,,0.00,WeatherCatV1.20B785,2013-10-28 23:03:00,
2013-10-28 19:08:00,43.0,38.2,30.33,NNW,338,0.0,1.0,83,0.00,,,0.00,WeatherCatV1.20B785,2013-10-28 23:08:00,
2013-10-28 19:13:00,42.8,38.0,30.33,NNW,339,0.0,0.0,83,0.00,,,0.00,WeatherCatV1.20B785,2013-10-28 23:13:00,
2013-10-28 19:18:00,42.6,37.8,30.33,NW,316,0.0,0.0,83,0.00,,,0.00,WeatherCatV1.20B785,2013-10-28 23:18:00,
2013-10-28 19:23:00,42.4,37.9,30.33,NNW,331,0.0,0.0,84,0.00,,,0.00,WeatherCatV1.20B785,2013-10-28 23:23:00,
2013-10-28 19:28:00,42.2,37.7,30.33,NNW,331,0.0,0.0,84,0.00,,,0.00,WeatherCatV1.20B785,2013-10-28 23:28:00,
2013-10-28 19:33:00,42.0,37.5,30.33,NNW,332,0.0,0.0,84,0.00,,,0.00,WeatherCatV1.20B785,2013-10-28 23:33:00,
2013-10-28 19:38:00,41.7,37.2,30.33,NNW,332,0.0,0.0,84,0.00,,,0.00,WeatherCatV1.20B785,2013-10-28 23:38:00,
2013-10-28 19:43:00,41.4,37.2,30.33,NNW,332,0.0,0.0,85,0.00,,,0.00,WeatherCatV1.20B785,2013-10-28 23:43:00,
2013-10-28 19:48:00,41.1,37.2,30.33,NNW,332,0.0,0.0,86,0.00,,,0.00,WeatherCatV1.20B785,2013-10-28 23:48:00,
2013-10-28 19:53:00,40.9,37.0,30.33,NNW,331,0.0,0.0,86,0.00,,,0.00,WeatherCatV1.20B785,2013-10-28 23:53:00,
2013-10-28 19:58:00,40.3,36.5,30.33,NNW,330,0.0,1.0,86,0.00,,,0.00,WeatherCatV1.20B785,2013-10-28 23:58:00,
2013-10-28 20:03:00,39.8,36.2,30.33,NNW,330,0.0,0.0,87,0.00,,,0.00,WeatherCatV1.20B785,2013-10-29 00:03:00,
2013-10-28 20:08:00,39.6,36.0,30.33,NNW,330,0.0,0.0,87,0.00,,,0.00,WeatherCatV1.20B785,2013-10-29 00:08:00,
2013-10-28 20:13:00,39.1,35.6,30.33,NNW,330,0.0,0.0,87,0.00,,,0.00,WeatherCatV1.20B785,2013-10-29 00:13:00,
2013-10-28 20:18:00,38.6,35.1,30.33,NNW,330,0.0,0.0,87,0.00,,,0.00,WeatherCatV1.20B785,2013-10-29 00:18:00,
2013-10-28 20:23:00,38.1,34.9,30.33,NNW,330,0.0,0.0,88,0.00,,,0.00,WeatherCatV1.20B785,2013-10-29 00:23:00,
2013-10-28 20:28:00,37.9,35.0,30.33,NNW,330,0.0,0.0,89,0.00,,,0.00,WeatherCatV1.20B785,2013-10-29 00:28:00,
2013-10-28 20:33:00,37.6,34.7,30.33,NNW,330,0.0,0.0,89,0.00,,,0.00,WeatherCatV1.20B785,2013-10-29 00:33:00,
2013-10-28 20:38:00,37.5,34.6,30.33,NNW,330,0.0,0.0,89,0.00,,,0.00,WeatherCatV1.20B785,2013-10-29 00:38:00,
2013-10-28 20:43:00,37.4,34.5,30.33,NNW,330,0.0,0.0,89,0.00,,,0.00,WeatherCatV1.20B785,2013-10-29 00:43:00,
2013-10-28 20:48:00,37.3,34.4,30.34,NNW,330,0.0,0.0,89,0.00,,,0.00,WeatherCatV1.20B785,2013-10-29 00:48:00,
2013-10-28 20:53:00,37.1,34.2,30.34,NNW,330,0.0,0.0,89,0.00,,,0.00,WeatherCatV1.20B785,2013-10-29 00:53:00,
2013-10-28 20:58:00,37.2,34.3,30.34,NNW,330,0.0,0.0,89,0.00,,,0.00,WeatherCatV1.20B785,2013-10-29 00:58:00,
2013-10-28 21:03:00,37.1,34.2,30.34,NNW,330,0.0,0.0,89,0.00,,,0.00,WeatherCatV1.20B785,2013-10-29 01:03:00,
2013-10-28 21:08:00,37.0,34.1,30.34,NNW,330,0.0,0.0,89,0.00,,,0.00,WeatherCatV1.20B785,2013-10-29 01:08:00,
2013-10-28 21:13:00,37.1,34.2,30.34,SW,228,0.0,1.0,89,0.00,,,0.00,WeatherCatV1.20B785,2013-10-29 01:13:00,
2013-10-28 21:18:00,37.1,34.2,30.34,SW,229,0.0,0.0,89,0.00,,,0.00,WeatherCatV1.20B785,2013-10-29 01:18:00,
2013-10-28 21:23:00,36.8,33.9,30.34,SW,229,0.0,0.0,89,0.00,,,0.00,WeatherCatV1.20B785,2013-10-29 01:23:00,
2013-10-28 21:28:00,36.3,33.7,30.34,SW,229,0.0,0.0,90,0.00,,,0.00,WeatherCatV1.20B785,2013-10-29 01:28:00,
2013-10-28 21:33:00,35.9,33.0,30.35,SW,228,0.0,0.0,89,0.00,,,0.00,WeatherCatV1.20B785,2013-10-29 01:33:00,
2013-10-28 21:38:00,35.9,33.0,30.35,SW,228,0.0,0.0,89,0.00,,,0.00,WeatherCatV1.20B785,2013-10-29 01:38:00,
2013-10-28 21:43:00,35.7,32.8,30.35,SW,229,0.0,0.0,89,0.00,,,0.00,WeatherCatV1.20B785,2013-10-29 01:43:00,
2013-10-28 21:48:00,35.7,32.8,30.35,SW,228,0.0,0.0,89,0.00,,,0.00,WeatherCatV1.20B785,2013-10-29 01:48:00,
2013-10-28 21:53:00,35.7,32.8,30.36,SW,229,0.0,0.0,89,0.00,,,0.00,WeatherCatV1.20B785,2013-10-29 01:53:00,
2013-10-28 21:58:00,35.9,33.0,30.36,SW,228,0.0,1.0,89,0.00,,,0.00,WeatherCatV1.20B785,2013-10-29 01:58:00,
2013-10-28 22:03:00,36.0,33.1,30.36,SSW,205,1.0,1.0,89,0.00,,,0.00,WeatherCatV1.20B785,2013-10-29 02:03:00,
2013-10-28 22:08:00,36.2,33.5,30.36,SW,215,0.0,1.0,90,0.00,,,0.00,WeatherCatV1.20B785,2013-10-29 02:08:00,
2013-10-28 22:13:00,36.1,33.5,30.36,SW,215,0.0,1.0,90,0.00,,,0.00,WeatherCatV1.20B785,2013-10-29 02:13:00,
2013-10-28 22:18:00,35.9,33.3,30.36,SW,215,0.0,1.0,90,0.00,,,0.00,WeatherCatV1.20B785,2013-10-29 02:18:00,
2013-10-28 22:23:00,35.7,33.1,30.37,SW,215,0.0,0.0,90,0.00,,,0.00,WeatherCatV1.20B785,2013-10-29 02:23:00,
2013-10-28 22:28:00,35.5,32.9,30.37,SW,215,0.0,0.0,90,0.00,,,0.00,WeatherCatV1.20B785,2013-10-29 02:28:00,
2013-10-28 22:33:00,35.3,32.7,30.37,SSW,207,0.0,1.0,90,0.00,,,0.00,WeatherCatV1.20B785,2013-10-29 02:33:00,
2013-10-28 22:39:00,34.9,32.3,30.37,SSW,207,0.0,1.0,90,0.00,,,0.00,WeatherCatV1.20B785,2013-10-29 02:39:00,
2013-10-28 22:44:00,34.7,32.1,30.37,SSW,207,0.0,0.0,90,0.00,,,0.00,WeatherCatV1.20B785,2013-10-29 02:44:00,
2013-10-28 22:49:00,34.3,31.7,30.37,SSW,207,0.0,0.0,90,0.00,,,0.00,WeatherCatV1.20B785,2013-10-29 02:49:00,
2013-10-28 22:54:00,33.9,31.3,30.37,SSW,207,0.0,0.0,90,0.00,,,0.00,WeatherCatV1.20B785,2013-10-29 02:54:00,
2013-10-28 22:59:00,33.4,30.8,30.37,SSW,207,0.0,0.0,90,0.00,,,0.00,WeatherCatV1.20B785,2013-10-29 02:59:00,
2013-10-28 23:04:00,33.2,30.6,30.37,SSW,207,0.0,0.0,90,0.00,,,0.00,WeatherCatV1.20B785,2013-10-29 03:04:00,
2013-10-28 23:09:00,32.9,30.3,30.37,SSW,207,0.0,0.0,90,0.00,,,0.00,WeatherCatV1.20B785,2013-10-29 03:09:00,
2013-10-28 23:14:00,32.7,30.1,30.37,SSW,207,0.0,0.0,90,0.00,,,0.00,WeatherCatV1.20B785,2013-10-29 03:14:00,
2013-10-28 23:19:00,32.3,29.7,30.37,SSW,207,0.0,0.0,90,0.00,,,0.00,WeatherCatV1.20B785,2013-10-29 03:19:00,
2013-10-28 23:24:00,32.0,29.4,30.37,SSW,207,0.0,0.0,90,0.00,,,0.00,WeatherCatV1.20B785,2013-10-29 03:24:00,
2013-10-28 23:29:00,31.7,29.1,30.37,SSW,207,0.0,0.0,90,0.00,,,0.00,WeatherCatV1.20B785,2013-10-29 03:29:00,
2013-10-28 23:34:00,31.6,29.0,30.37,SSW,207,0.0,0.0,90,0.00,,,0.00,WeatherCatV1.20B785,2013-10-29 03:34:00,
2013-10-28 23:39:00,31.3,28.7,30.37,SSW,207,0.0,0.0,90,0.00,,,0.00,WeatherCatV1.20B785,2013-10-29 03:39:00,
2013-10-28 23:44:00,31.2,28.6,30.37,SSW,207,0.0,0.0,90,0.00,,,0.00,WeatherCatV1.20B785,2013-10-29 03:44:00,
2013-10-28 23:49:00,30.9,28.3,30.37,SSW,207,0.0,0.0,90,0.00,,,0.00,WeatherCatV1.20B785,2013-10-29 03:49:00,
2013-10-28 23:54:00,30.9,28.0,30.37,SSW,207,0.0,0.0,89,0.00,,,0.00,WeatherCatV1.20B785,2013-10-29 03:54:00,
2013-10-28 23:59:00,31.0,28.4,30.37,SSW,207,0.0,0.0,90,0.00,,,0.00,WeatherCatV1.20B785,2013-10-29 03:59:00,